User: anonymous   Login
Location: Camp at the Woods
(43.2055°N, 93.0905°W)
Time: 13:56:12
(UTC+00:00)
Language:

COSMO-SKYMED 1 - Orbit

View from above orbital plane
View from above orbital plane
View from above satellite
View from above satellite

Ground track
Ground track

The orbit data is extracted from the following two-line orbital elements,

1 31598U 07023A   24104.19082196  .00000816  00000-0  10904-3 0  9997
2 31598  97.8867 288.2897 0001340  86.1685 273.9681 14.82169615911560
Epoch (UTC): 13 April 2024 04:34:47
Eccentricity: 0.0001340
inclination: 97.8867°
perigee height: 621 km
apogee height: 623 km
right ascension of ascending node: 288.2897°
argument of perigee: 86.1685°
revolutions per day: 14.82169615
mean anomaly at epoch: 273.9681°
orbit number at epoch: 91156

The dashed part of the orbit path shows where the satellite is in the earth's shadow,  

DLR